Regional Weather Roundup
Issued by NWS Green Bay, WI

Home | Current Version | Previous Version | Graphics & Text | Print | Product List | Glossary Off
Versions: 1 2 3 4 5 6 7 8 9 10 11 12 13 14 15 16 17 18 19 20 21 22 23 24 25 26 27 28 29 30 31 32 33 34 35 36 37 38 39 40 41 42 43 44 45 46 47 48 49 50

000
ASUS43 KGRB 210300
RWRGRB

NORTH-CENTRAL AND NORTHEAST WISCONSIN REGIONAL WEATHER ROUNDUP
NATIONAL WEATHER SERVICE GREEN BAY WI
1000 PM CDT WED SEP 20 2017

WIZ005-009-010>012-018-019-210400-
NORTH CENTRAL WISCONSIN

CITY           SKY/WX    TMP DP  RH WIND       PRES   REMARKS
IRONWOOD       FOG       55  55 100 CALM      29.93R VSB 1
MANITOWISH WTR NOT AVBL
ARBOR VITAE    NOT AVBL
EAGLE RIVER    NOT AVBL
LAND O LAKES   NOT AVBL
RHINELANDER    FOG       62  62 100 CALM      29.91R VSB 1/4
PHILLIPS       NOT AVBL
ANTIGO         NOT AVBL
TOMAHAWK       NOT AVBL
MERRILL        NOT AVBL
$$

WIZ013-073-210400-
NORTHEAST WISCONSIN

CITY           SKY/WX    TMP DP  RH WIND       PRES   REMARKS
IRON MOUNTAIN  FOG       65  63  93 CALM      29.88R VSB 1/4
MARINETTE      CLOUDY    71  68  90 N3        29.87S
$$

WIZ017-030-035>037-045-210400-
CENTRAL WISCONSIN

CITY           SKY/WX    TMP DP  RH WIND       PRES   REMARKS
MEDFORD        NOT AVBL
WAUSAU         CLOUDY    66  65  96 CALM      29.89R
MOSINEE        CLEAR     66  66 100 E3        29.92R
MARSHFIELD     CLOUDY    66  61  84 NW3       29.90R
WISC RAPIDS    CLOUDY    67  67 100 CALM      29.90R
STEVENS POINT  NOT AVBL
WAUPACA        NOT AVBL
SHAWANO        NOT AVBL
CLINTONVILLE   NOT AVBL
WAUTOMA        CLOUDY    71  70  96 CALM      29.90R
$$

WIZ038-039-048-051-210400-
FOX VALLEY

CITY           SKY/WX    TMP DP  RH WIND       PRES   REMARKS
NWS GREEN BAY  LGT RAIN  72  69  90 SW12      29.87S
APPLETON       TSTM      68  68 100 SE14      29.88S
OSHKOSH        TSTM      69  68  96 E10       29.94R FOG
FOND DU LAC    TSTM      68  66  93 N10       29.96R FOG
$$

WIZ022-050-052-210400-
EAST CENTRAL WISCONSIN

CITY           SKY/WX    TMP DP  RH WIND       PRES   REMARKS
EPHRAIM        NOT AVBL
WASHINGTON ISL NOT AVBL
STURGEON BAY   CLOUDY    70  68  93 S6        29.89F
MANITOWOC      LGT RAIN  72  69  90 W9        29.92R
SHEBOYGAN      CLOUDY    73  70  90 NW10      29.96R
$$

LMZ563-521-522-541>543-210400-
LAKESHORE

STATION/POSITION TIME  TEMP    WIND        PRES    VSBY  WAVE
                       AIR SEA DIR/SP/G                  HT/PER
                 (UTC) (F)     (DEG/KT/KT) (MB)    (MI)  (FT/S)
SHEBOYGAN LKSHOR 0200   67     160/  6/  7 1010.5R
KEWAUNEE LKSHORE 0230   71     210/  5/  8 1011.0R
NORTHPORT PIER   0240   72     160/  8/ 15 1010.5S
N MID LAKE BUOY  0150   68 65  130/ 10/ 12 1010.8F         3/ 5
S GREEN BAY BUOY 0230   69 66  190/  4/  4 1010.8R
SISTER BAY LKSHO 0219   72     200/  9/ 11   N/A
MENOMINEE LKSHOR 0230   72     170/  7/ 11 1010.5F
$$




USA.gov is the U.S. government's official web portal to all federal, state and local government web resources and services.